Location: Newark
(52.2090°N, 4.1550°W)
Time: 00:51:31
(UTC+00:00)

Explorer 7 - Pass Details

Date: 25 September 2019
Orbit: 485 x 680 km, 50.3° (Epoch: 13 October)

Event Time Altitude Azimuth Distance (km) Brightness Sun altitude
Rises 03:52:03 0° 279° (W) 2,982 - -20.7°
Reaches altitude 10° 03:55:22 10° 256° (WSW) 2,092 - -20.3°
Maximum altitude 03:57:55 14° 224° (SW) 1,826 - -19.9°
Drops below altitude 10° 04:00:29 10° 192° (SSW) 2,109 - -19.6°
Exits shadow 04:02:38 - 175° (S) 2,651 10.1 -19.3°
Sets 04:03:52 0° 168° (SSE) 3,023 10.5 -19.1°
